Tracking 29799 objects as of 10-Oct-2024
HD Live streaming from Space Station
objects crossing your sky now

GSAT 30

Track GSAT 30 now!
GSAT 30 is classified as:


NORAD ID: 45026
Int'l Code: 2020-005A
Perigee: 35,784.1 km
Apogee: 35,802.7 km
Inclination: 0.1 °
Period: 1,436.1 minutes
Semi major axis: 42164 km
RCS: Unknown
Launch date: January 16, 2020
Source: India (IND)
Launch site: FRENCH GUIANA (FRGUI)
Your satellite tracking list
Your tracking list is empty




NASA's NSSDC Master Catalog

Two Line Element Set (TLE):
1 45026U 20005A   24282.59007745 -.00000156  00000-0  00000-0 0  9992
2 45026   0.0617  96.0003 0002207  47.5657 169.5953  1.00272999 17326
Source of the keplerian elements: AFSPC